Weather History for Dodge City, KS

Change the Weather History Date:

Tuesday, May 14, 2013

  Actual Average Record
Temperature  
Mean Temperature 78 °F -  
Max Temperature 95 °F 75 °F 97 °F (1941)
Min Temperature 62 °F 50 °F 32 °F (1953)
Cooling Degree Days 14    
Growing Degree Days 28 (Base 50)    
Moisture  
Dew Point 34 °F    
Average Humidity 20    
Maximum Humidity 38    
Minimum Humidity 6    
Precipitation  
Precipitation 0.00 in - - ()
Sea Level Pressure  
Sea Level Pressure 29.80 in    
Wind  
Wind Speed 16 mph (SSW)    
Max Wind Speed 25 mph    
Max Gust Speed 34 mph    
Visibility 10 miles    
Events      
Averages and records for this station are not official NWS values.
T = Trace of Precipitation, MM = Missing Value Source: NWS Daily Summary

Daily Weather History Graph

Daily Weather History Graph

Search for Another Location

Airport:

Trip Planner

Search our weather history database for the weather conditions in past years. The results will help you decide how hot, cold, wet, or windy it might be!

Date:

Astronomy

May. 14, 2013 Rise Set
Actual Time 6:30 AM CDT 8:42 PM CDT
Civil Twilight 6:01 AM CDT 9:11 PM CDT
Nautical Twilight 5:25 AM CDT 9:47 PM CDT
Astronomical Twilight 4:46 AM CDT 10:27 PM CDT
Moon 10:11 AM CDT (5/14) No Moon Set
Length of Visible Light 15h 10m
Length of Day
14h 11m
Waxing Crescent, 19% of the Moon is Illuminated
May 14
Waxing Crescent
May 17
First Quarter
May 24
Full
May 31
Last Quarter
Jun 8
New

Hourly Weather History & Observations

Time (CDT) Temp. Dew Point Humidity Pressure Visibility Wind Dir Wind Speed Gust Speed Precip Events Conditions
12:52 AM 66.0 °F 37.0 °F 34% 29.88 in 10.0 mi SSW 9.2 mph - N/A   Clear
1:52 AM 66.0 °F 35.1 °F 32% 29.87 in 10.0 mi SW 11.5 mph - N/A   Clear
2:52 AM 66.9 °F 33.1 °F 28% 29.86 in 10.0 mi SW 13.8 mph - N/A   Clear
3:52 AM 64.9 °F 33.1 °F 31% 29.85 in 10.0 mi SW 13.8 mph - N/A   Clear
4:52 AM 63.0 °F 33.1 °F 33% 29.85 in 10.0 mi SW 16.1 mph - N/A   Clear
5:52 AM 63.0 °F 32.0 °F 31% 29.84 in 10.0 mi SW 17.3 mph 25.3 mph N/A   Clear
6:52 AM 62.1 °F 30.9 °F 31% 29.85 in 10.0 mi SW 17.3 mph 27.6 mph N/A   Clear
7:52 AM 63.0 °F 32.0 °F 31% 29.86 in 10.0 mi SW 17.3 mph 23.0 mph N/A   Clear
8:52 AM 70.0 °F 32.0 °F 25% 29.87 in 10.0 mi SW 20.7 mph 26.5 mph N/A   Clear
9:52 AM 79.0 °F 30.9 °F 17% 29.86 in 10.0 mi SW 19.6 mph - N/A   Clear
10:52 AM 84.0 °F 30.0 °F 14% 29.85 in 10.0 mi SW 25.3 mph 31.1 mph N/A   Clear
11:52 AM 88.0 °F 30.0 °F 12% 29.84 in 10.0 mi SSW 24.2 mph 32.2 mph N/A   Clear
12:52 PM 91.0 °F 33.1 °F 13% 29.81 in 10.0 mi SSW 24.2 mph 31.1 mph N/A   Clear
1:52 PM 93.0 °F 32.0 °F 12% 29.79 in 10.0 mi SW 23.0 mph 34.5 mph N/A   Clear
2:52 PM 93.0 °F 30.9 °F 11% 29.77 in 10.0 mi SSW 23.0 mph 31.1 mph N/A   Clear
3:52 PM 93.9 °F 33.1 °F 12% 29.75 in 10.0 mi SSW 21.9 mph 32.2 mph N/A   Clear
4:52 PM 93.0 °F 32.0 °F 12% 29.73 in 10.0 mi SSW 21.9 mph 31.1 mph N/A   Clear
5:52 PM 91.9 °F 33.1 °F 12% 29.72 in 10.0 mi South 21.9 mph 34.5 mph N/A   Clear
6:52 PM 89.1 °F 32.0 °F 13% 29.72 in 10.0 mi South 21.9 mph 29.9 mph N/A   Clear
7:52 PM 84.9 °F 35.1 °F 17% 29.72 in 10.0 mi South 17.3 mph 25.3 mph N/A   Clear
8:52 PM 79.0 °F 36.0 °F 21% 29.73 in 10.0 mi South 13.8 mph - N/A   Clear
9:52 PM 73.9 °F 37.9 °F 27% 29.75 in 10.0 mi South 11.5 mph - N/A   Clear
10:52 PM 72.0 °F 42.1 °F 34% 29.76 in 10.0 mi South 15.0 mph - N/A   Clear
11:52 PM 70.0 °F 43.0 °F 38% 29.75 in 10.0 mi South 15.0 mph - N/A   Clear